Weather History for KBTV - October, 2012

Change the Weather History Date:

Saturday, October 6, 2012

  Actual Average Record
Temperature  
Mean Temperature 56 °F 52 °F  
Max Temperature 65 °F 61 °F 82 °F (1946)
Min Temperature 46 °F 42 °F 23 °F (1964)
Degree Days  
Heating Degree Days 9 13  
Month to date heating degree days 32 74  
Since 1 July heating degree days 179 291  
Cooling Degree Days 0 0  
Month to date cooling degree days 1 0  
Year to date cooling degree days 747 489  
Growing Degree Days 2 (Base 50)    
Moisture  
Dew Point 49 °F    
Average Humidity 72    
Maximum Humidity 93    
Minimum Humidity 50    
Precipitation  
Precipitation 0.26 in 0.13 in 4.19 in (1932)
Month to date precipitation 1.71 0.75  
Year to date precipitation 28.07 28.46  
Snow  
Snow 0.00 in 0.00 in 0.00 in (2002)
Month to date snowfall 0.0 0.0  
Since 1 July snowfall 0.0 T  
Since 1 September snowfall 0.0 T  
Snow Depth 0.00 in    
Sea Level Pressure  
Sea Level Pressure 29.78 in    
Wind  
Wind Speed 6 mph (North)    
Max Wind Speed 20 mph    
Max Gust Speed 26 mph    
Visibility 8 miles    
Events Rain    
T = Trace of Precipitation, MM = Missing Value Source: NWS Daily Summary

Daily Weather History Graph

Daily Weather History Graph

Search for Another Location

Airport or City:

Trip Planner

Search our weather history database for the weather conditions in past years. The results will help you decide how hot, cold, wet, or windy it might be!

Date:

Astronomy

Oct. 06, 2012 Rise Set
Actual Time 6:57 AM EDT 6:23 PM EDT
Civil Twilight 6:27 AM EDT 6:52 PM EDT
Nautical Twilight 5:54 AM EDT 7:25 PM EDT
Astronomical Twilight 5:20 AM EDT 7:59 PM EDT
Moon 10:26 PM EDT (10/6) 1:00 PM EDT (10/6)
Length of Visible Light 12h 24m
Length of Day
11h 26m
Waning Gibbous, 65% of the Moon is Illuminated
Oct 6
Waning Gibbous
Oct 8
Last Quarter
Oct 15
New
Oct 21
First Quarter
Oct 29
Full

Hourly Weather History & Observations

Time (EDT) Temp. Dew Point Humidity Pressure Visibility Wind Dir Wind Speed Gust Speed Precip Events Conditions
12:54 AM 64.0 °F 59.0 °F 84% 29.84 in 10.0 mi Calm Calm - N/A   Overcast
1:54 AM 64.0 °F 59.0 °F 84% 29.81 in 10.0 mi Calm Calm - N/A   Overcast
2:54 AM 64.0 °F 59.0 °F 84% 29.78 in 10.0 mi Calm Calm - N/A   Overcast
3:54 AM 63.0 °F 59.0 °F 87% 29.76 in 9.0 mi NNE 3.5 mph - N/A   Overcast
4:14 AM 62.6 °F 60.8 °F 94% 29.75 in 9.0 mi Calm Calm - N/A   Overcast
4:54 AM 62.1 °F 60.1 °F 93% 29.74 in 7.0 mi NNW 4.6 mph - 0.01 in Rain Light Rain
5:54 AM 59.0 °F 57.0 °F 93% 29.72 in 10.0 mi North 4.6 mph - 0.00 in Rain Light Rain
6:54 AM 57.9 °F 55.9 °F 93% 29.72 in 8.0 mi NNW 5.8 mph - 0.00 in Rain Light Rain
7:30 AM 55.4 °F 53.6 °F 94% 29.72 in 7.0 mi North 11.5 mph - 0.00 in   Overcast
7:54 AM 54.0 °F 51.1 °F 90% 29.73 in 10.0 mi North 9.2 mph - 0.00 in Rain Light Rain
8:07 AM 53.6 °F 51.8 °F 94% 29.69 in 6.0 mi NNE 8.1 mph - 0.00 in Rain Rain
8:30 AM 53.6 °F 51.8 °F 94% 29.71 in 10.0 mi NW 8.1 mph - 0.01 in Rain Light Rain
8:40 AM 53.6 °F 51.8 °F 94% 29.71 in 9.0 mi NNW 10.4 mph - 0.01 in Rain Light Rain
8:54 AM 53.1 °F 51.1 °F 93% 29.72 in 10.0 mi NNW 17.3 mph - 0.01 in Rain Light Rain
9:03 AM 53.6 °F 50.0 °F 88% 29.72 in 10.0 mi NNW 17.3 mph - 0.00 in Rain Light Rain
9:14 AM 53.6 °F 50.0 °F 88% 29.73 in 10.0 mi NNW 13.8 mph 21.9 mph 0.01 in Rain Light Rain
9:39 AM 50.0 °F 46.4 °F 87% 29.75 in 6.0 mi NNW 17.3 mph 26.5 mph 0.02 in Rain Light Rain
9:54 AM 50.0 °F 46.9 °F 89% 29.76 in 10.0 mi NNW 12.7 mph - 0.02 in Rain Light Rain
10:35 AM 50.0 °F 46.4 °F 87% 29.75 in 2.0 mi North 8.1 mph - 0.03 in Rain Rain
10:43 AM 50.0 °F 48.2 °F 94% 29.75 in 5.0 mi NE 9.2 mph - 0.04 in Rain Light Rain
10:54 AM 50.0 °F 48.0 °F 93% 29.74 in 7.0 mi NNE 8.1 mph - 0.05 in Rain Light Rain
11:02 AM 50.0 °F 48.2 °F 94% 29.74 in 2.5 mi NNE 8.1 mph - 0.02 in Rain Heavy Rain
11:17 AM 50.0 °F 48.2 °F 94% 29.74 in 7.0 mi NNE 8.1 mph - 0.04 in Rain Light Rain
11:25 AM 50.0 °F 46.4 °F 87% 29.75 in 10.0 mi North 9.2 mph - 0.05 in Rain Light Rain
11:32 AM 50.0 °F 46.4 °F 87% 29.75 in 10.0 mi NNE 8.1 mph - 0.05 in Rain Light Rain
11:45 AM 50.0 °F 46.4 °F 87% 29.76 in 5.0 mi NNE 8.1 mph - 0.06 in Rain Light Rain
11:48 AM 50.0 °F 46.4 °F 87% 29.76 in 3.0 mi North 6.9 mph - 0.07 in Rain Light Rain
11:54 AM 50.0 °F 46.9 °F 89% 29.76 in 3.0 mi North 8.1 mph - 0.07 in Rain Light Rain
12:08 PM 50.0 °F 46.4 °F 87% 29.76 in 2.0 mi NNE 4.6 mph - 0.02 in Rain Light Rain
12:15 PM 50.0 °F 46.4 °F 87% 29.76 in 4.0 mi NNE 4.6 mph - 0.03 in Rain Light Rain
12:54 PM 50.0 °F 48.0 °F 93% 29.77 in 10.0 mi Calm Calm - 0.03 in   Overcast
1:01 PM 50.0 °F 48.2 °F 94% 29.76 in 10.0 mi Calm Calm - N/A   Overcast
1:26 PM 51.8 °F 48.2 °F 88% 29.76 in 10.0 mi East 3.5 mph - 0.00 in Rain Light Rain
1:54 PM 51.1 °F 48.9 °F 92% 29.77 in 8.0 mi ENE 4.6 mph - 0.01 in Rain Light Rain
2:19 PM 51.8 °F 48.2 °F 88% 29.78 in 3.0 mi Calm Calm - 0.02 in Rain Rain
2:27 PM 51.8 °F 48.2 °F 88% 29.78 in 4.0 mi Calm Calm - 0.03 in Rain Light Rain
2:54 PM 52.0 °F 48.9 °F 89% 29.78 in 6.0 mi East 3.5 mph - 0.06 in Rain Light Rain
3:02 PM 51.8 °F 50.0 °F 94% 29.78 in 10.0 mi Calm Calm - 0.00 in Rain Light Rain
3:12 PM 51.8 °F 48.2 °F 88% 29.79 in 10.0 mi ESE 3.5 mph - 0.00 in Rain Light Rain
3:54 PM 54.0 °F 48.9 °F 83% 29.79 in 10.0 mi Calm Calm - 0.00 in   Overcast
4:54 PM 55.9 °F 50.0 °F 80% 29.79 in 10.0 mi Variable 4.6 mph - N/A   Mostly Cloudy
5:54 PM 55.4 °F 42.8 °F 63% 29.81 in 10.0 mi SSW 4.6 mph - N/A   Mostly Cloudy
6:54 PM 53.1 °F 42.1 °F 66% 29.83 in 10.0 mi SW 5.8 mph - N/A   Mostly Cloudy
7:54 PM 52.0 °F 42.1 °F 69% 29.85 in 10.0 mi SSW 4.6 mph - N/A   Scattered Clouds
8:54 PM 54.0 °F 37.0 °F 53% 29.88 in 10.0 mi West 11.5 mph 19.6 mph N/A   Mostly Cloudy
9:54 PM 53.1 °F 35.1 °F 50% 29.91 in 10.0 mi Variable 6.9 mph 18.4 mph N/A   Partly Cloudy
10:54 PM 51.1 °F 35.1 °F 54% 29.93 in 10.0 mi WSW 6.9 mph - N/A   Partly Cloudy
11:54 PM 48.9 °F 36.0 °F 61% 29.93 in 10.0 mi SSE 4.6 mph - N/A   Clear